Showing default

FLOCK 4Q 31, 58285

Orbit data source: Space-Track

FLOCK 4Q 31, 58285 is a payload satellite owned by Planet (US) in SSO that was launched on Sat, 11 Nov 2023 UTC via an FALCON 9 launch vehicle from the Air Force Western Test Range (AFWTR). Payload-class satellites include a variety of spacecraft equipped with specific instruments for various scientific and technological missions. These include communications satellites like Starlink; space stations such as the ISS; scientific satellites like the Hubble; Earth observation satellites from companies like Planet Labs, Umbra, and HawkEye 360; GPS; miniature CubeSats for education and research; and military/defense satellites.

Loading next visibility...
Identifier
58285, 2023-174AF
Orbit
SSO
Country
Flag of USUS
Related business
Manufacturer
Planet
Mission
Non-operational Commercial Imaging
Bus & Motor
CUBESAT 3U, Unknown motor
Mass
5.7 kg wet, 5.7 kg dry
Launch date (UTC)
2023-11-11 (3 years ago)
Launch vehicle
FALCON 9
Launch site
Air Force Western Test Range (AFWTR)
Object type
Payload
Rocket body
Debris
Shape & HBR
Box + 2 Pan, 1.0 m
Radar Cross Section
0.072 m², Medium (>0.1 m² and < 1m²)

Expand to show TLE details & history
Last TLE update: 3 days ago

TLE from 3 days ago
0 FLOCK 4Q 31
1 58285U 23174AF  26173.50747049  .00029807  00000-0  39083-3 0  9992
2 58285  97.3835 265.8667 0007061 134.8022 225.3809 15.58492176146614
Epoch: 2026-06-22T12:10Z
TLE epoch observation values (Epoch: 2026-06-22T12:10:45.450Z)
Latitude
-0.00003°
Longitude
172.48494°
Altitude
398.523 km
Speed
7.669 km/s
True Right ascension
17h 43m 28s
True Declination
0° 00' 00"
Sunlit
Object was in full shadow at epoch
Visualization orbit readout
Latitude
Unknown
Longitude
Unknown
Altitude
Unknown
Speed
Unknown
Apparent Right ascension
Unknown
Apparent Declination
Unknown
Sunlit
N/A
Visualization observer readout
Local Sidereal Time
19:48:35
Azimuth
Unknown
Elevation
Unknown
Doppler factor
Unknown
Orbital elements
Apogee altitude
393.712 km
Perigee altitude
384.156 km
Semi-major axis
6,767.071 km
Eccentricity
0.00071
Inclination
97.3835°
RAAN
265.8667°
Arg. of periapsis
134.8022°
True anomaly
225.32334°
Mean anomaly
225.3809°
Eccentric anomaly
225.35212°
Mean motion
3.8989 °/min
Orbital period
92.33 mins
BSTAR
0.00039083
Loading maneuver chart data...
Computing Atmospheric mass density...

Documentation

Showing up to 5 results
|